When you browse on this site, cookies collect data to enhance your experience and personalize the content and advertising you see.
Visit our Privacy Policy to learn more. By continuing to use the site, you agree to this use of cookies and data.
  • In Slovakia
  • List of Countries
  • For 7 days
  • Water Temperature
  • Weather Map
  • Weather Widgets
  • user-avatar
    Login

    Hourly Weather Marbella

    Today, 11 December, Wednesday

    Time Temperature Precipitation Wind Pressure Humidity
    00:00 +14°C° 0 mm 3 mps 763 mmHg 32%
    01:00 +14°C° 0 mm 3 mps 762 mmHg 33%
    02:00 +14°C° 0 mm 3 mps 762 mmHg 35%
    03:00 +13°C° 0 mm 3 mps 762 mmHg 36%
    04:00 +13°C° 0 mm 3 mps 762 mmHg 38%
    05:00 +13°C° 0 mm 4 mps 762 mmHg 40%
    06:00 +13°C° 0 mm 4 mps 762 mmHg 43%
    07:00 +14°C° 0 mm 4 mps 762 mmHg 45%
    08:00 +14°C° 0 mm 4 mps 762 mmHg 46%
    09:00 +15°C° 0 mm 4 mps 763 mmHg 48%
    10:00 +17°C° 0 mm 4 mps 763 mmHg 43%
    11:00 +19°C° 0 mm 5 mps 762 mmHg 38%
    12:00 +21°C° 0 mm 5 mps 762 mmHg 33%
    13:00 +20°C° 0 mm 5 mps 762 mmHg 41%
    14:00 +20°C° 0 mm 5 mps 762 mmHg 49%
    15:00 +20°C° 0 mm 6 mps 761 mmHg 57%
    16:00 +17°C° 0 mm 5 mps 762 mmHg 63%
    17:00 +15°C° 0 mm 5 mps 762 mmHg 68%
    18:00 +14°C° 0 mm 4 mps 762 mmHg 74%
    19:00 +13°C° 0 mm 4 mps 763 mmHg 76%
    20:00 +13°C° 0 mm 4 mps 763 mmHg 78%
    21:00 +12°C° 0 mm 4 mps 763 mmHg 79%
    22:00 +12°C° 0 mm 4 mps 763 mmHg 78%
    23:00 +11°C° 0 mm 4 mps 763 mmHg 77%

    Tomorrow, 12 December, Thursday

    Time Temperature Precipitation Wind Pressure Humidity
    00:00 +11°C° 0 mm 4 mps 764 mmHg 76%
    01:00 +10°C° 0 mm 4 mps 763 mmHg 73%
    02:00 +10°C° 0 mm 4 mps 763 mmHg 70%
    03:00 +10°C° 0 mm 4 mps 763 mmHg 67%
    04:00 +8°C° 0 mm 4 mps 763 mmHg 67%
    05:00 +8°C° 0 mm 4 mps 763 mmHg 67%
    06:00 +8°C° 0 mm 4 mps 763 mmHg 67%
    07:00 +10°C° 0 mm 4 mps 763 mmHg 66%
    08:00 +10°C° 0 mm 4 mps 763 mmHg 65%
    09:00 +10°C° 0 mm 5 mps 764 mmHg 64%
    10:00 +12°C° 0 mm 5 mps 763 mmHg 62%
    11:00 +13°C° 0 mm 5 mps 763 mmHg 59%
    12:00 +15°C° 0 mm 6 mps 763 mmHg 57%
    13:00 +15°C° 0 mm 6 mps 763 mmHg 59%
    14:00 +15°C° 0 mm 6 mps 762 mmHg 61%
    15:00 +14°C° 0 mm 6 mps 762 mmHg 63%
    16:00 +14°C° 0 mm 6 mps 762 mmHg 67%
    17:00 +13°C° 0 mm 6 mps 762 mmHg 72%
    18:00 +12°C° 0 mm 5 mps 762 mmHg 77%
    19:00 +12°C° 0 mm 5 mps 762 mmHg 80%
    20:00 +12°C° 0 mm 5 mps 762 mmHg 83%
    21:00 +10°C° 0 mm 6 mps 762 mmHg 85%
    22:00 +11°C° 0 mm 6 mps 762 mmHg 85%
    23:00 +11°C° 0 mm 6 mps 762 mmHg 85%

    Day after tomorrow, 13 December, Friday

    Time Temperature Precipitation Wind Pressure Humidity
    00:00 +13°C° 0 mm 6 mps 761 mmHg 84%
    01:00 +13°C° 0.1 mm 6 mps 761 mmHg 86%
    02:00 +13°C° 0.1 mm 6 mps 761 mmHg 88%
    03:00 +14°C° 0.1 mm 7 mps 760 mmHg 90%
    04:00 +14°C° 0 mm 6 mps 760 mmHg 90%
    05:00 +14°C° 0 mm 6 mps 760 mmHg 90%
    06:00 +14°C° 0 mm 6 mps 760 mmHg 91%
    07:00 +15°C° 0 mm 6 mps 761 mmHg 89%
    08:00 +15°C° 0 mm 6 mps 761 mmHg 88%
    09:00 +15°C° 0 mm 6 mps 762 mmHg 87%
    10:00 +16°C° 0 mm 6 mps 762 mmHg 81%
    11:00 +17°C° 0 mm 6 mps 762 mmHg 76%
    12:00 +17°C° 0 mm 6 mps 762 mmHg 71%
    13:00 +17°C° 0 mm 6 mps 761 mmHg 69%
    14:00 +17°C° 0 mm 6 mps 761 mmHg 68%
    15:00 +17°C° 0 mm 6 mps 760 mmHg 67%
    16:00 +16°C° 0 mm 5 mps 760 mmHg 72%
    17:00 +15°C° 0 mm 5 mps 760 mmHg 77%
    18:00 +14°C° 0 mm 5 mps 760 mmHg 81%
    19:00 +14°C° 0 mm 4 mps 761 mmHg 81%
    20:00 +13°C° 0 mm 4 mps 761 mmHg 82%
    21:00 +13°C° 0 mm 4 mps 761 mmHg 82%
    22:00 +13°C° 0 mm 4 mps 761 mmHg 83%
    23:00 +13°C° 0 mm 3 mps 761 mmHg 84%

    14 December, Saturday

    Time Temperature Precipitation Wind Pressure Humidity
    00:00 +12°C° 0 mm 3 mps 761 mmHg 85%
    01:00 +12°C° 0 mm 3 mps 761 mmHg 85%
    02:00 +12°C° 0 mm 4 mps 761 mmHg 86%
    03:00 +12°C° 0 mm 4 mps 760 mmHg 87%
    04:00 +12°C° 0 mm 4 mps 760 mmHg 87%
    05:00 +12°C° 0 mm 4 mps 760 mmHg 87%
    06:00 +12°C° 0 mm 4 mps 760 mmHg 87%
    07:00 +12°C° 0 mm 4 mps 760 mmHg 84%
    08:00 +13°C° 0 mm 4 mps 761 mmHg 81%
    09:00 +14°C° 0 mm 4 mps 761 mmHg 78%
    10:00 +15°C° 0 mm 4 mps 761 mmHg 72%
    11:00 +17°C° 0 mm 4 mps 760 mmHg 66%
    12:00 +19°C° 0 mm 4 mps 760 mmHg 61%
    13:00 +19°C° 0 mm 4 mps 760 mmHg 60%
    14:00 +19°C° 0 mm 4 mps 759 mmHg 60%
    15:00 +19°C° 0 mm 4 mps 759 mmHg 59%
    16:00 +18°C° 0 mm 4 mps 759 mmHg 66%
    17:00 +15°C° 0 mm 4 mps 759 mmHg 73%
    18:00 +14°C° 0 mm 4 mps 759 mmHg 80%
    19:00 +13°C° 0 mm 4 mps 760 mmHg 80%
    20:00 +13°C° 0 mm 4 mps 760 mmHg 81%
    21:00 +12°C° 0 mm 4 mps 760 mmHg 81%
    22:00 +12°C° 0 mm 4 mps 760 mmHg 81%
    23:00 +12°C° 0 mm 4 mps 760 mmHg 81%

    15 December, Sunday

    Time Temperature Precipitation Wind Pressure Humidity
    00:00 +12°C° 0 mm 4 mps 760 mmHg 81%
    01:00 +12°C° 0 mm 4 mps 759 mmHg 80%
    02:00 +12°C° 0 mm 4 mps 759 mmHg 80%
    03:00 +11°C° 0 mm 3 mps 759 mmHg 80%
    04:00 +11°C° 0 mm 3 mps 759 mmHg 80%
    05:00 +11°C° 0 mm 3 mps 758 mmHg 79%
    06:00 +11°C° 0 mm 3 mps 758 mmHg 79%
    07:00 +12°C° 0 mm 3 mps 758 mmHg 76%
    08:00 +14°C° 0 mm 2 mps 759 mmHg 72%
    09:00 +15°C° 0 mm 2 mps 759 mmHg 69%
    10:00 +16°C° 0 mm 2 mps 758 mmHg 63%
    11:00 +18°C° 0 mm 2 mps 758 mmHg 57%
    12:00 +20°C° 0 mm 1 mps 758 mmHg 51%
    13:00 +20°C° 0 mm 1 mps 757 mmHg 52%
    14:00 +20°C° 0 mm 1 mps 757 mmHg 53%
    15:00 +20°C° 0 mm 1 mps 756 mmHg 55%
    16:00 +19°C° 0 mm 1 mps 756 mmHg 62%
    17:00 +16°C° 0 mm 1 mps 756 mmHg 69%
    18:00 +15°C° 0 mm 1 mps 756 mmHg 75%
    19:00 +14°C° 0 mm 1 mps 756 mmHg 76%
    20:00 +14°C° 0 mm 1 mps 756 mmHg 76%
    21:00 +14°C° 0 mm 1 mps 756 mmHg 77%
    22:00 +14°C° 0 mm 1 mps 756 mmHg 77%
    23:00 +14°C° 0 mm 1 mps 756 mmHg 78%

    16 December, Monday

    Time Temperature Precipitation Wind Pressure Humidity
    00:00 +13°C° 0 mm 1 mps 755 mmHg 79%
    01:00 +13°C° 0 mm 1 mps 755 mmHg 79%
    02:00 +13°C° 0 mm 1 mps 754 mmHg 80%
    03:00 +13°C° 0 mm 1 mps 754 mmHg 81%
    04:00 +13°C° 0 mm 1 mps 753 mmHg 81%
    05:00 +13°C° 0 mm 1 mps 753 mmHg 82%
    06:00 +13°C° 0 mm 1 mps 752 mmHg 83%
    07:00 +13°C° 0 mm 1 mps 752 mmHg 81%
    08:00 +14°C° 0 mm 1 mps 752 mmHg 79%
    09:00 +15°C° 0 mm 1 mps 752 mmHg 77%
    10:00 +16°C° 0 mm 2 mps 752 mmHg 71%
    11:00 +17°C° 0 mm 2 mps 751 mmHg 65%
    12:00 +18°C° 0 mm 2 mps 751 mmHg 58%
    13:00 +18°C° 0 mm 3 mps 751 mmHg 61%
    14:00 +18°C° 0 mm 3 mps 750 mmHg 63%
    15:00 +17°C° 0 mm 3 mps 749 mmHg 66%
    16:00 +16°C° 0.8 mm 3 mps 749 mmHg 73%
    17:00 +14°C° 0.8 mm 4 mps 749 mmHg 81%
    18:00 +13°C° 0.8 mm 4 mps 748 mmHg 89%
    19:00 +13°C° 1.8 mm 5 mps 749 mmHg 88%
    20:00 +12°C° 1.8 mm 5 mps 749 mmHg 87%
    21:00 +11°C° 1.8 mm 6 mps 750 mmHg 86%
    22:00 +10°C° 0.4 mm 6 mps 750 mmHg 85%
    23:00 +10°C° 0.4 mm 6 mps 751 mmHg 83%
    Show more